San Jose, Costa Rica

5:10 PM CST on June 22, 2017 (GMT -0600)
Juan Santamaria International

Weather History for MROC - October, 2010

Change the Weather History Date:

Wednesday, October 20, 2010

  Actual Average Record
Temperature  
Mean Temperature 74 °F -  
Max Temperature 81 °F 78 °F 86 °F (1997)
Min Temperature 66 °F 64 °F 60 °F (1996)
Cooling Degree Days 8    
Growing Degree Days 24 (Base 50)    
Moisture  
Dew Point 69 °F    
Average Humidity 87    
Maximum Humidity 100    
Minimum Humidity 61    
Precipitation  
Precipitation 0.00 in 0.26 in - ()
Sea Level Pressure  
Sea Level Pressure 30.02 in    
Wind  
Wind Speed 4 mph ()    
Max Wind Speed 13 mph    
Max Gust Speed -    
Visibility 6.5 miles    
Events Fog , Rain    
Averages and records for this station are not official NWS values.
T = Trace of Precipitation, MM = Missing Value Source: Averaged Metar Reports

Daily Weather History Graph

Daily Weather History Graph

Search for Another Location

Airport or City:

Trip Planner

Search our weather history database for the weather conditions in past years. The results will help you decide how hot, cold, wet, or windy it might be!

Date:

Astronomy

Oct. 20, 2010 Rise Set
Actual Time 5:25 AM CST 5:17 PM CST
Civil Twilight 5:04 AM CST 5:38 PM CST
Nautical Twilight 4:39 AM CST 6:03 PM CST
Astronomical Twilight 4:15 AM CST 6:28 PM CST
Moon 3:39 PM CST (10/20) 3:24 AM CST (10/20)
Length of Visible Light 12h 34m
Length of Day
11h 51m
Waxing Gibbous, 95% of the Moon is Illuminated
Oct 20
Waxing Gibbous
Oct 22
Full
Oct 30
Last Quarter
Nov 5
New
Nov 13
First Quarter

Hourly Weather History & Observations

Time (CST) Temp. Heat Index Dew Point Humidity Pressure Visibility Wind Dir Wind Speed Gust Speed Precip Events Conditions
12:00 AM 68.0 °F - 68.0 °F 100% 30.07 in 6.2 mi Calm Calm - N/A Fog Patches of Fog
1:00 AM 68.0 °F - 68.0 °F 100% 30.04 in 6.2 mi Calm Calm - N/A Fog Patches of Fog
2:00 AM 66.2 °F - 66.2 °F 100% 30.03 in 6.2 mi Calm Calm - N/A Fog Patches of Fog
3:00 AM 66.2 °F - 66.2 °F 100% 30.03 in 6.2 mi Calm Calm - N/A   Scattered Clouds
4:00 AM 66.2 °F - 66.2 °F 100% 30.03 in 6.2 mi SE 3.5 mph - N/A   Scattered Clouds
5:00 AM 66.2 °F - 66.2 °F 100% 30.04 in 6.2 mi ESE 3.5 mph - N/A   Partly Cloudy
6:00 AM 66.2 °F - 66.2 °F 100% 30.04 in - East 5.8 mph - N/A   Clear
7:00 AM 71.6 °F - 66.2 °F 83% 30.07 in 6.2 mi Calm Calm - N/A   Unknown
8:00 AM 77.0 °F - 66.2 °F 69% 30.08 in - Calm Calm - N/A   Clear
8:25 AM 77.0 °F - 69.8 °F 78% 30.08 in - SW 4.6 mph - N/A   Clear
9:00 AM 77 °F - 68 °F 67% 29.92 in 12 mi WSW 6.9 mph - -   Scattered Clouds
9:00 AM 77.0 °F - 68.0 °F 74% 30.09 in 6.2 mi WSW 6.9 mph - N/A   Partly Cloudy
10:00 AM 78.8 °F - 69.8 °F 74% 30.08 in 6.2 mi WSW 8.1 mph - N/A   Partly Cloudy
11:00 AM 80.6 °F 83.2 °F 68.0 °F 65% 30.06 in 6.2 mi WSW 9.2 mph - N/A   Scattered Clouds
12:00 PM 81 °F - 70 °F 61% 29.87 in 12 mi WSW 9.2 mph - -   Partly Cloudy
12:00 PM 80.6 °F 83.9 °F 69.8 °F 70% 30.03 in 6.2 mi WSW 9.2 mph - N/A   Scattered Clouds
1:00 PM 80.6 °F 83.9 °F 69.8 °F 70% 30.00 in 6.2 mi WSW 11.5 mph - N/A   Scattered Clouds
2:00 PM 80.6 °F 84.6 °F 71.6 °F 74% 29.96 in 6.2 mi WSW 10.4 mph - N/A   Scattered Clouds
3:00 PM 79 °F - 70 °F 67% 29.80 in 9 mi WSW 12.7 mph - -   Partly Cloudy
3:00 PM 78.8 °F - 69.8 °F 74% 29.96 in 6.2 mi WSW 12.7 mph - N/A   Scattered Clouds
4:00 PM 75.2 °F - 69.8 °F 83% 29.97 in 6.2 mi WSW 12.7 mph - N/A   Scattered Clouds
5:00 PM 71.6 °F - 69.8 °F 94% 30.00 in 6.2 mi WSW 9.2 mph - N/A   Scattered Clouds
6:00 PM 70 °F - 70 °F 99% 29.87 in 5 mi West 6.9 mph - -   Overcast
6:00 PM 69.8 °F - 69.8 °F 100% 30.02 in 6.2 mi West 6.9 mph - N/A Fog Mostly Cloudy
7:00 PM 69.8 °F - 69.8 °F 100% 30.06 in 5.0 mi WSW 6.9 mph - N/A Fog Fog
8:00 PM 69.8 °F - 69.8 °F 100% 30.09 in 6.2 mi Calm Calm - N/A Fog , Rain Light Rain
9:00 PM 70 °F - 70 °F 99% 29.92 in 3 mi Calm Calm - - Rain Light Rain
9:00 PM 69.8 °F - 69.8 °F 100% 30.10 in 6.2 mi Calm Calm - N/A Rain Light Rain
10:00 PM 68.0 °F - 68.0 °F 100% 30.11 in 5.0 mi Calm Calm - N/A Rain Light Rain
11:00 PM 68.0 °F - 68.0 °F 100% 30.08 in 6.2 mi East 4.6 mph - N/A Rain Light Rain